Location: RyutenAO
(34.8939°N, 134.0022°E)
Time: 08:19:12
(UTC+09:00)

PCSat - Visible Passes

Search period start: 25 February 2024 00:00
Search period end: 06 March 2024 00:00
Orbit: 784 x 791 km, 67.0° (Epoch: 24 February)

Date Brightness Start Highest point End Pass type
(mag) Time Alt. Az. Time Alt. Az. Time Alt. Az.
25 Feb 12.7 19:38:11 10° W 19:40:08 12° WSW 19:42:04 10° SW visible
26 Feb 12.4 19:05:13 10° WNW 19:08:47 18° WSW 19:12:21 10° SSW visible
27 Feb 12.0 18:32:58 10° NW 18:37:24 26° WSW 18:41:49 10° SSW visible
02 Mar 12.4 05:53:45 10° SSE 05:57:39 21° ESE 06:01:34 10° ENE visible
03 Mar 12.7 05:23:38 10° SE 05:26:17 14° ESE 05:28:57 10° ENE visible
05 Mar 10.2 06:00:37 10° SSW 06:05:55 62° ESE 06:11:15 10° NNE visible
